Regional Weather Roundup
Issued by NWS

Home | Current Version | Previous Version | Text Only | Print | Product List | Glossary Off
Versions: 1 2 3 4 5 6 7 8 9 10 11 12 13 14 15 16 17 18 19 20 21 22 23 24 25 26 27 28 29 30 31 32 33 34 35 36 37 38 39 40 41 42 43 44 45 46 47 48 49 50

000
ASUS43 KDTX 261910
RWRMI
MICHIGAN HOURLY REGIONAL WEATHER ROUNDUP
NATIONAL WEATHER SERVICE DETROIT/PONTIAC MI
300 PM EDT WED JUL 26 2017

NOTE: "FAIR" INDICATES FEW OR NO CLOUDS BELOW 12,000 FEET WITH NO
SIGNIFICANT WEATHER AND/OR OBSTRUCTION TO VISIBILITY.

MIZ047>049-052>055-059>063-066>070-074>076-081>083-262000-
SOUTHEAST LOWER MICHIGAN

CITY           SKY/WX    TMP DP  RH WIND       PRES   REMARKS
ADRIAN         CLOUDY    78  61  55 SW10      30.10F
ALMA           CLOUDY    76  63  63 CALM      30.08F
ANN ARBOR      PTSUNNY   77  63  61 S9        30.08F
BAD AXE        CLOUDY    76  62  61 SW13G18   30.07S
CARO           CLOUDY    77  64  62 SW9       30.07S
DETROIT CITY   MOSUNNY   78  62  57 S12       30.07F
DETROIT        CLOUDY    79  61  53 S12G22    30.08F
FLINT          CLOUDY    78  63  59 SW10      30.08R
GROSSE ILE     CLOUDY    76  64  67 S10       30.08S
HILLSDALE      CLOUDY    77  61  57 SW6       30.10S
HOWELL         CLOUDY    78  61  55 SW8       30.10R

CITY           SKY/WX    TMP DP  RH WIND       PRES   REMARKS
JACKSON        CLOUDY    79  59  50 S8        30.10R
LAMBERTVILLE   PTSUNNY   78  62  58 SW7       30.08F
LANSING        CLOUDY    80  63  55 SW9       30.09R
LAPEER         FAIR      79  61  54 SW10      30.08S
MASON          PTSUNNY   77  63  61 S5        30.10R
MONROE         MOSUNNY   78  64  61 S8        30.08S
MT. CLEMENS    CLOUDY    77  64  63 S12       30.06S
PONTIAC        PTSUNNY   77  61  57 SW9       30.08S
PORT HOPE        N/A     76  63  64 SW9       30.05R
PORT HURON     CLOUDY    77  63  61 S10       30.09R
TRI CITIES     CLOUDY    76  66  71 W17       30.11R
MIDLAND        HVY RAIN  70  65  85 W7G17     30.09R
TROY           CLOUDY    79  58  48 SW9       30.10R
SAGINAW HB     CLOUDY    77  63  61 W9        30.09R
$$
MIZ043>046-050>051-056>058-064>065-071>073-077>080-262000-
SOUTHWEST LOWER MICHIGAN

CITY           SKY/WX    TMP DP  RH WIND       PRES   REMARKS
BATTLE CREEK   CLOUDY    80  64  58 S6        30.10R
BENTON HARBOR  MOSUNNY   82  62  50 SW6       30.06R
BIG RAPIDS     CLOUDY    71  67  88 S5        30.06F
COLDWATER      PTSUNNY   78  62  57 SW5       30.09F
FREMONT        FAIR      76  66  71 SW5       30.05F
HOLLAND        CLOUDY    82  65  56 W5        30.08S
GRAND RAPIDS   PTSUNNY   81  63  54 SW5       30.07F
IONIA          PTSUNNY   80  63  56 W6        30.08F
KALAMAZOO      CLOUDY    81  60  48 S6        30.08S
LUDINGTON      CLOUDY    70  68  92 S7        30.03F
MARSHALL       CLOUDY    80  64  58 SW9       30.09S
MOUNT PLEASANT LGT RAIN  70  65  85 CALM      30.06F
MUSKEGON       CLOUDY    77  66  68 S12       30.06F
SOUTH HAVEN    MOSUNNY   82  68  61 W5        30.06F
$$
MIZ016>042-262000-
NORTHERN LOWER MICHIGAN

CITY           SKY/WX    TMP DP  RH WIND       PRES   REMARKS
ALPENA         HVY RAIN  68  68 100 SW5       30.03R VSB 1
BEAVER ISLAND  CLOUDY    69  67  95 SW9       29.94R
BELLAIRE       LGT RAIN  68  66  93 S6        29.96F
CADILLAC       CLOUDY    70  67  90 S9        30.05F
CHARLEVOIX     LGT RAIN  69  69 100 S9        29.95F
FRANKFORT      LGT RAIN  69  69  99 S8        30.01S
GAYLORD        LGT RAIN  68  64  87 SE8       29.98F
GRAYLING       LGT RAIN  67  64  93 S5        30.04F
HARBOR SPRINGS RAIN      68  67  95 S5        29.92F
HOUGHTON LAKE  LGT RAIN  69  67  93 S3        30.05F FOG
MANISTEE       CLOUDY    70  68  93 VRB7      30.03S
OSCODA         CLOUDY    73  63  70 W8        30.04R
PELLSTON       LGT RAIN  69  67  93 CALM      29.93F
ROGERS CITY    HVY RAIN  68  66  93 SW13G23   29.98F
TRAVERSE CITY  LGT RAIN  70  66  87 VRB6      29.97F
$$
MIZ007>008-015-262000-
EASTERN UPPER MICHIGAN

CITY           SKY/WX    TMP DP  RH WIND       PRES   REMARKS
KINROSS        CLOUDY    67  66  97 W8        29.92F
MACKINAC ISLAN CLOUDY    67  67 100 SW8       29.91F
NEWBERRY       CLOUDY    71  70  97 W3        29.91S
S. S. MARIE    CLOUDY    69  67  93 W7        29.91F
MUNISING         N/A     74  62  66 NW9       29.92R
$$
MIZ004>006-011>014-085-262000-
CENTRAL UPPER MICHIGAN

CITY           SKY/WX    TMP DP  RH WIND       PRES   REMARKS
MANISTIQUE     CLOUDY    68  65  89 CALM      29.93R FOG
ESCANABA       CLOUDY    75  72  88 W8        29.93R
MENOMINEE      LGT RAIN  71  69  93 SW3       29.95F
SAWYER-GWINN   MOSUNNY   77  63  61 W15G21    29.93S
$$
MIZ001>003-009>011-084-262000-
WESTERN UPPER MICHIGAN

CITY           SKY/WX    TMP DP  RH WIND       PRES   REMARKS
IRON MOUNTAIN  CLOUDY    77  67  71 W9        29.94S
HOUGHTON       SUNNY     76  58  53 W18G24    29.94R
COPPER HARBOR    N/A     71  55  56 N18       29.90S
IRONWOOD       SUNNY     78  59  51 NW10      29.98S
$$

ABBREVIATIONS USED IN REMARKS
   TC - TEMPERATURE IN CELSIUS
  WCI - WIND CHILL INDEX
   HX - HEAT INDEX
  VSB - VISIBILITY




USA.gov is the U.S. government's official web portal to all federal, state and local government web resources and services.